Regional Weather Roundup
Issued by NWS Boston, MA

Home | Current Version | Previous Version | Text Only | Print | Product List | Glossary On
Versions: 1 2 3 4 5 6 7 8 9 10 11 12 13 14 15 16 17 18 19 20 21 22 23 24 25 26 27 28
000
ASUS41 KBOX 202210
RWRBOX

REGIONAL WEATHER ROUNDUP
NATIONAL WEATHER SERVICE TAUNTON MA
500 PM EST MON NOV 20 2017

NOTE:  "FAIR" INDICATES FEW OR NO CLOUDS BELOW 12,000 FEET WITH NO
SIGNIFICANT WEATHER AND/OR OBSTRUCTIONS TO VISIBILITY.

MAZALL-202300-
EASTERN MASSACHUSETTS

CITY           SKY/WX    TMP DP  RH WIND       PRES   REMARKS
BOSTON         MOCLDY    39  20  46 SW14      29.95R WCI  31
BEVERLY        PTCLDY    37  20  50 SW9G20    29.93R WCI  30
LAWRENCE       PTCLDY    40  20  44 SW8       29.95R
BEDFORD        PTCLDY    36  18  48 SW5       29.94R
BLUE HILL        N/A     37  18  46 SW9       29.93R WCI  30
NORWOOD        CLOUDY    41  20  43 SW5       29.96R
MARSHFIELD     MOCLDY    37  19  48 CALM      29.97R
PLYMOUTH       CLOUDY    39  20  46 SW7       29.97R
TAUNTON        CLOUDY    39  21  48 SW3       29.97R
NEW BEDFORD    PTCLDY    50  21  32 SW3       29.97S
$$

MAZALL-202300-
CAPE COD AND THE ISLANDS

CITY           SKY/WX    TMP DP  RH WIND       PRES   REMARKS
FALMOUTH       CLOUDY    39  19  45 SW8G15    29.99S
HYANNIS        MOCLDY    39  21  48 SW8       29.98R
CHATHAM        CLEAR     38  21  50 SW6       30.00R
PROVINCETOWN   CLEAR     40  22  48 W18G25    29.97R WCI  31
NANTUCKET      PTCLDY    39  24  55 W10       30.01R
MARTHAS VNYRD  MOCLDY    40  20  44 W6        30.00R
$$

MAZALL-202300-
CENTRAL AND WESTERN MASSACHUSETTS

CITY           SKY/WX    TMP DP  RH WIND       PRES   REMARKS
WORCESTER      CLOUDY    36  17  46 W15G28    29.91R WCI  27
FITCHBURG      PTCLDY    40  21  46 W5        29.94R
ORANGE         PTCLDY    36  21  54 SW5       29.94R
SPRINGFIELD    MOCLDY    40  22  47 NW15G28   29.98R WCI  32
WESTFIELD      CLOUDY    40  24  53 W18G28    29.98R WCI  31
NORTH ADAMS    CLOUDY    36  23  59 W20G26    29.97R WCI  25
PITTSFIELD     CLOUDY    35  24  64 W14G25    29.95R WCI  26
$$

RIZALL-202300-
RHODE ISLAND

CITY           SKY/WX    TMP DP  RH WIND       PRES   REMARKS
PROVIDENCE     MOCLDY    41  21  44 SW10      29.99R
NEWPORT        CLEAR     41  21  44 W5        29.99R
BLOCK ISLAND   MOCLDY    44  25  47 W20G32    30.02R
SMITHFIELD     CLOUDY    37  19  48 CALM      29.96R
WESTERLY       CLEAR     43  22  43 W12G22    30.01R
$$

CTZALL-202300-
CONNECTICUT

CITY           SKY/WX    TMP DP  RH WIND       PRES   REMARKS
BRADLEY INTL   MOCLDY    42  22  44 W10G23    30.01R
HARTFORD       CLOUDY    43  23  45 W8G20     30.02R
BRIDGEPORT     CLOUDY    45  24  43 W8        30.04R
DANBURY        CLOUDY    43  24  47 VRB5      30.04R
GROTON         MOCLDY    43  22  43 W21       30.02R
NEW HAVEN      CLOUDY    46  24  42 W9        30.04R
CHESTER        MOCLDY    41  21  45 W5        30.01R
MERIDEN        CLOUDY    43  23  45 CALM      30.03R
WILLIMANTIC    CLOUDY    43  22  43 W9        30.00R
OXFORD         CLOUDY    41  22  46 W6        30.02R
$$

MEZ002-015-021-024-NHZ003-005-008-011-012-014-VTZ005-008-202300-
NORTHERN NEW ENGLAND

CITY           SKY/WX    TMP DP  RH WIND       PRES   REMARKS
PORTLAND ME    PTCLDY    32  17  54 W9        29.87R WCI  24
BANGOR ME      MOCLDY    27   8  44 NW14G20   29.83R WCI  16
CONCORD NH     CLOUDY    37  21  52 W9        29.89R WCI  30
MANCHESTER NH  MOCLDY    38  19  46 VRB6      29.90R
NASHUA NH      MOCLDY    37  20  50 MISG      29.93R
PORTSMOUTH NH  PTCLDY    37  19  48 SW15      29.87R WCI  28
JAFFREY NH     CLEAR     35  21  56 W9        29.89R WCI  28
KEENE NH       PTCLDY    36  21  54 VRB6G16   29.93R WCI  31
BURLINGTON VT  LGT SNOW  26  22  84 SE3       29.95R FOG
MT. WASHINGTON SNOWSHWR   1   1 100 W96G104     N/A  VSB 0   WCI -34
$$

NYZ052-076-202300-
EASTERN NEW YORK

CITY           SKY/WX    TMP DP  RH WIND       PRES   REMARKS
ALBANY         FLURRIES  38  25  59 W6G23     30.00R
NEW YORK CITY  MOCLDY    46  24  42 SW13G18   30.07R
$$

ANZALL-202300-
MARINE OBSERVATIONS

STATION/POSITION TIME  TEMP    WIND        PRES    VSBY  WAVE
                       AIR SEA DIR/SP/G                  HT/PER
                 (UTC) (F)     (DEG/KT/KT) (MB)    (MI)  (FT/S)
BOSTON BUOY      2150   42 50  240/ 17/ 21 1013.1R         3/ 4
BUZZARDS BAY     2100   42     260/ 15/ 19 1015.8R
NANTUCKET SOUND  2150   42 48  270/ 16/ 17 1015.7R         3/ 4
MASS BAY-STELLWA 2104   42 49  270/ 29/ 37 1012.4R         4/ 5
ISLE OF SHOALS   2100   40     260/ 23/ 26 1011.7R
S OF BLOCK IS    NOT AVBL
$$

......................KEY.........................
  SKY/WX - SKY CONDITION/PRESENT WEATHER
  TMP    - TEMPERATURE IN FAHRENHEIT
  DWPT   - DEWPOINT IN FAHRENHEIT
  RH     - RELATIVE HUMIDITY IN PERCENT
  WIND   - DIRECTION AND SPEED IN MPH
  PRES   - MEAN SEA LEVEL PRESSURE IN INCHES OF HG
  WCI    - WIND CHILL INDEX
  VSB    - VISIBILITY IN MILES
  HX     - HEAT INDEX
  TC     - TEMPERATURE IN CELSIUS
  VRB    - VARIABLE WIND DIRECTION
  N/A    - NOT AVAILABLE




USA.gov is the U.S. government's official web portal to all federal, state and local government web resources and services.